Find Starlink 34949

NORAD ID: 65175 Int'l Des: 2025-175 Owner: SPXS Country: US Constellation: starlink operational
LEOCIRCULARRETROGRADESSO

Live Position

Loading 3D Globe...

About Starlink 34949

Description loading...

Upcoming Passes

Passes for default location (London). Set your location on the main map for personalized predictions.

Altitude History

Loading altitude history...

Two-Line Element Set

1 65175U 25175B 26103.89733154 .00002988 00000-0 21129-3 0 9991
2 65175 97.6036 337.2872 0002654 87.6762 272.4768 15.05635875 37946
Epoch: Apr 13, 2026 • Age: 10 hours

Current Status

Altitude 552.1 km
Velocity 7.59 km/s
Sub-Earth Point 25.74°N, 157.94°W
Launch Date Aug 14, 2025
Age 0.6 years
Type internet

Technical Details

Classification Payload
Mass 575.00 kg
Dry Mass 530.00 kg
Total Mass 575.00 kg
Length 0.30 m
Diameter 4.10 m
Span 29.00 m
Shape Box + pan
Manufacturer SPXS
Bus Type Starlink V2MO
Phase Status In Orbit
Owner/State SPXS/US

Most Searched